Flag for U.S.A. Weather past 2 weeks in Cupertino, California, U.S.A.

Now
59 °F

Clear.


Feels Like: 59 °F
Forecast: 41 / 69 °F
Wind: No wind

Location: Moffett Field

Current Time: Jan 24, 2015 at 8:57:11 PM

Latest Report: Jan 24, 2015 at 7:56 PM


Visibility: 10 mi

Pressure: 30.11 "Hg

Humidity: 58%

Dew point: 44 °F

Location of CupertinoLocation

Historic Weather in Cupertino — Graph

°F

Cupertino temperature yesterday

Maximum temperature yesterday: 67 °F (at 1:56 PM)
Minimum temperature yesterday: 41 °F (at 5:56 AM)
Average temperature yesterday: 54 °F

Past Weeks' High & Low Weather Summary

 TemperatureHumidityPressure
High69 °F (Jan 24, 1:56 PM)100% (Jan 13, 2:59 AM)30.38 "Hg (Jan 13, 2:59 AM)
Low38 °F (Jan 14, 6:56 AM)26% (Jan 24, 3:56 PM)29.96 "Hg (Jan 10, 1:56 PM)
Average52 °F77%30.21 "Hg
* Reported Jan 9 6:56 PM — Jan 24 6:56 PM, Cupertino, Weather by CustomWeather, © 2014

Note: Actual official high and low records may vary slightly from our data, if they occured in-between our weather recording intervals... More about our weather records

Advertising

Cupertino weather history for previous 24 hours

 ConditionsComfort  
Time TempWeatherWind HumidityBarometerVisibility
6:56 PM
Jan 24
62 °FClear.No wind37%30.11 "Hg10 mi
5:56 PM66 °FClear.6 mph29%30.10 "Hg10 mi
4:56 PM67 °FSunny.3 mph32%30.10 "Hg10 mi
3:56 PM69 °FSunny.12 mph26%30.12 "Hg10 mi
2:56 PM69 °FSunny.5 mph32%30.13 "Hg10 mi
1:56 PM69 °FSunny.6 mph33%30.14 "Hg10 mi
12:56 PM68 °FSunny.7 mph32%30.16 "Hg10 mi
11:56 AM66 °FSunny.10 mph37%30.19 "Hg10 mi
10:56 AM63 °FSunny.5 mph43%30.22 "Hg10 mi
9:56 AM62 °FSunny.8 mph43%30.24 "Hg10 mi
8:56 AM57 °FSunny.6 mph55%30.24 "Hg10 mi
7:56 AM50 °FSunny.No wind68%30.24 "Hg10 mi
6:56 AM51 °FClear.6 mph69%30.24 "Hg10 mi
5:56 AM51 °FClear.6 mph71%30.24 "Hg10 mi
4:56 AM48 °FClear.3 mph77%30.24 "Hg10 mi
3:56 AM51 °FClear.5 mph69%30.23 "Hg10 mi
2:56 AM55 °FClear.8 mph64%30.23 "Hg10 mi
1:56 AM56 °FClear.10 mph62%30.24 "Hg10 mi
12:56 AM53 °FClear.6 mph64%30.25 "Hg10 mi
11:56 PM
Jan 23
52 °FClear.6 mph64%30.26 "Hg10 mi
10:56 PM51 °FClear.No wind66%30.27 "Hg10 mi
9:56 PM54 °FClear.No wind62%30.26 "Hg10 mi
8:56 PM55 °FClear.No wind62%30.26 "Hg10 mi
Weather by CustomWeather, © 2014

See weather overviewHow to use our weather pages